Location: Mount Cross
(36.6390°N, 79.4878°W)
Time: 11:44:34
(UTC+00:00)

Tiros 1 - Pass Details

Date: 29 March 2023
Orbit: 627 x 661 km, 48.4° (Epoch: 05 June)

Event Time Altitude Azimuth Distance (km) Brightness Sun altitude
Rises 08:21:06 0° 225° (SW) 2,959 - -32.4°
Reaches altitude 10° 08:23:26 10° 223° (SW) 2,055 - -32.0°
Maximum altitude 08:28:09 68° 141° (SE) 709 - -31.2°
Exits shadow 08:29:50 39° 72° (ENE) 989 8.4 -30.9°
Drops below altitude 10° 08:32:55 10° 59° (ENE) 2,075 10.7 -30.4°
Sets 08:35:17 0° 57° (ENE) 2,991 11.8 -30.0°
